Time,TemperatureF,DewpointF,PressureIn,WindDirection,WindDirectionDegrees,WindSpeedMPH,WindSpeedGustMPH,Humidity,HourlyPrecipIn,Conditions,Clouds,dailyrainin,SolarRadiationWatts/m^2,SoftwareType,DateUTC
2013-04-02 00:05:00,60.2,58.5,30.00,SSW,207,0.0,0.0,94,0.00,,,0.00,0,Wunderground v.1.15,2013-04-02 05:05:00,
2013-04-02 00:15:00,59.9,58.2,30.01,SSW,207,0.0,0.0,94,0.00,,,0.00,0,Wunderground v.1.15,2013-04-02 05:15:00,
2013-04-02 00:24:00,59.8,58.4,30.01,SSW,207,0.0,0.0,95,0.00,,,0.00,0,Wunderground v.1.15,2013-04-02 05:24:00,
2013-04-02 00:29:00,59.7,58.3,30.01,SSW,207,0.0,0.0,95,0.00,,,0.00,0,Wunderground v.1.15,2013-04-02 05:29:00,
2013-04-02 00:35:00,59.6,58.2,30.01,SSW,207,0.0,0.0,95,0.00,,,0.00,0,Wunderground v.1.15,2013-04-02 05:35:00,
2013-04-02 00:44:00,59.5,58.1,30.01,SSW,207,0.0,0.0,95,0.00,,,0.00,0,Wunderground v.1.15,2013-04-02 05:44:00,
2013-04-02 13:20:00,74.9,61.5,29.98,East,83,3.0,7.0,63,0.00,,,0.01,563,Wunderground v.1.15,2013-04-02 18:20:00,
2013-04-02 13:25:00,74.6,60.3,29.99,East,84,3.0,7.0,61,0.00,,,0.01,369,Wunderground v.1.15,2013-04-02 18:25:00,
2013-04-02 13:30:00,74.0,60.2,29.99,SE,136,3.0,3.0,62,0.00,,,0.01,292,Wunderground v.1.15,2013-04-02 18:30:00,
2013-04-02 13:40:00,73.7,60.3,29.99,ESE,120,2.0,2.0,63,0.00,,,0.01,188,Wunderground v.1.15,2013-04-02 18:40:00,
2013-04-02 13:45:00,73.5,60.6,29.99,ESE,117,1.0,2.0,64,0.00,,,0.01,192,Wunderground v.1.15,2013-04-02 18:45:00,
2013-04-02 13:50:00,73.4,61.8,29.99,SE,140,1.0,1.0,67,0.00,,,0.01,169,Wunderground v.1.15,2013-04-02 18:50:00,
2013-04-02 13:55:00,73.2,61.2,29.99,South,173,0.0,1.0,66,0.00,,,0.01,155,Wunderground v.1.15,2013-04-02 18:55:00,
2013-04-02 14:00:00,72.9,62.5,30.00,South,175,1.0,1.0,70,0.00,,,0.01,139,Wunderground v.1.15,2013-04-02 19:00:00,
2013-04-02 14:10:00,72.4,62.5,29.99,SSE,163,1.0,3.0,71,0.00,,,0.01,176,Wunderground v.1.15,2013-04-02 19:10:00,
2013-04-02 14:15:00,72.3,62.4,29.99,South,173,1.0,3.0,71,0.00,,,0.01,211,Wunderground v.1.15,2013-04-02 19:15:00,
2013-04-02 14:20:00,72.3,62.8,29.99,South,173,1.0,1.0,72,0.00,,,0.01,186,Wunderground v.1.15,2013-04-02 19:20:00,
2013-04-02 14:30:00,72.5,61.7,29.99,SE,142,0.0,0.0,69,0.00,,,0.01,199,Wunderground v.1.15,2013-04-02 19:30:00,
2013-04-02 14:40:00,72.7,61.5,29.99,SSE,155,1.0,2.0,68,0.00,,,0.01,169,Wunderground v.1.15,2013-04-02 19:40:00,
2013-04-02 14:45:00,72.7,61.9,29.99,SSE,159,2.0,2.0,69,0.00,,,0.01,146,Wunderground v.1.15,2013-04-02 19:45:00,
2013-04-02 14:50:00,72.6,62.3,29.99,SSE,157,1.0,1.0,70,0.00,,,0.01,156,Wunderground v.1.15,2013-04-02 19:50:00,
2013-04-02 15:00:00,72.5,62.6,29.98,SSE,155,0.0,2.0,71,0.00,,,0.01,169,Wunderground v.1.15,2013-04-02 20:00:00,
2013-04-02 15:10:00,72.4,62.5,29.97,SE,142,1.0,1.0,71,0.00,,,0.01,199,Wunderground v.1.15,2013-04-02 20:10:00,
2013-04-02 15:15:00,72.6,62.7,29.97,SSE,162,1.0,1.0,71,0.00,,,0.01,253,Wunderground v.1.15,2013-04-02 20:15:00,
2013-04-02 15:20:00,72.8,62.4,29.97,SSE,161,0.0,3.0,70,0.00,,,0.01,214,Wunderground v.1.15,2013-04-02 20:20:00,
2013-04-02 15:30:00,72.8,62.4,29.96,ESE,111,1.0,1.0,70,0.00,,,0.01,146,Wunderground v.1.15,2013-04-02 20:30:00,
2013-04-02 15:35:00,72.8,63.2,29.97,ESE,111,0.0,1.0,72,0.00,,,0.01,83,Wunderground v.1.15,2013-04-02 20:35:00,
2013-04-02 15:45:00,72.5,63.0,29.96,ESE,105,1.0,1.0,72,0.00,,,0.01,144,Wunderground v.1.15,2013-04-02 20:45:00,
2013-04-02 15:55:00,72.3,63.2,29.96,ESE,110,1.0,3.0,73,0.00,,,0.01,221,Wunderground v.1.15,2013-04-02 20:55:00,
2013-04-02 16:00:00,72.4,63.3,29.96,ESE,115,1.0,1.0,73,0.00,,,0.01,181,Wunderground v.1.15,2013-04-02 21:00:00,
2013-04-02 16:10:00,72.8,63.2,29.95,SE,132,1.0,4.0,72,0.00,,,0.01,181,Wunderground v.1.15,2013-04-02 21:10:00,
2013-04-02 16:15:00,72.8,63.6,29.95,SE,142,1.0,4.0,73,0.00,,,0.01,151,Wunderground v.1.15,2013-04-02 21:15:00,
2013-04-02 16:20:00,72.8,63.2,29.95,ESE,107,1.0,1.0,72,0.00,,,0.01,183,Wunderground v.1.15,2013-04-02 21:20:00,
2013-04-02 16:25:00,72.7,63.5,29.94,SE,134,1.0,1.0,73,0.00,,,0.01,236,Wunderground v.1.15,2013-04-02 21:25:00,
2013-04-02 16:30:00,72.6,63.8,29.94,SE,134,1.0,1.0,74,0.00,,,0.01,752,Wunderground v.1.15,2013-04-02 21:30:00,
2013-04-02 16:40:00,73.6,63.6,29.93,SSE,155,2.0,2.0,71,0.00,,,0.01,243,Wunderground v.1.15,2013-04-02 21:40:00,
2013-04-02 16:45:00,73.7,63.7,29.94,SE,142,1.0,2.0,71,0.00,,,0.01,132,Wunderground v.1.15,2013-04-02 21:45:00,
2013-04-02 16:55:00,73.1,63.5,29.93,ESE,117,2.0,2.0,72,0.00,,,0.01,155,Wunderground v.1.15,2013-04-02 21:55:00,
2013-04-02 17:05:00,72.9,63.3,29.93,East,83,1.0,5.0,72,0.00,,,0.01,141,Wunderground v.1.15,2013-04-02 22:05:00,
2013-04-02 17:10:00,72.7,63.5,29.93,East,88,2.0,2.0,73,0.00,,,0.01,162,Wunderground v.1.15,2013-04-02 22:10:00,
2013-04-02 17:15:00,72.6,63.4,29.92,East,101,1.0,2.0,73,0.00,,,0.01,134,Wunderground v.1.15,2013-04-02 22:15:00,
2013-04-02 17:25:00,72.4,63.6,29.92,East,81,2.0,4.0,74,0.00,,,0.01,93,Wunderground v.1.15,2013-04-02 22:25:00,
2013-04-02 17:30:00,72.3,63.9,29.92,ENE,65,2.0,3.0,75,0.00,,,0.01,88,Wunderground v.1.15,2013-04-02 22:30:00,
2013-04-02 17:35:00,72.1,63.7,29.92,SE,134,3.0,3.0,75,0.00,,,0.01,88,Wunderground v.1.15,2013-04-02 22:35:00,
2013-04-02 17:40:00,71.9,63.5,29.91,ENE,70,2.0,2.0,75,0.00,,,0.01,90,Wunderground v.1.15,2013-04-02 22:40:00,
2013-04-02 17:45:00,71.8,63.4,29.91,East,85,2.0,6.0,75,0.00,,,0.01,90,Wunderground v.1.15,2013-04-02 22:45:00,
2013-04-02 17:55:00,71.5,63.5,29.90,East,100,3.0,4.0,76,0.00,,,0.01,97,Wunderground v.1.15,2013-04-02 22:55:00,
2013-04-02 18:00:00,71.3,63.3,29.90,East,88,3.0,3.0,76,0.00,,,0.01,88,Wunderground v.1.15,2013-04-02 23:00:00,
2013-04-02 18:05:00,71.2,63.6,29.90,ENE,61,2.0,3.0,77,0.00,,,0.01,90,Wunderground v.1.15,2013-04-02 23:05:00,
2013-04-02 18:15:00,71.0,63.1,29.90,East,96,2.0,3.0,76,0.00,,,0.01,56,Wunderground v.1.15,2013-04-02 23:15:00,
2013-04-02 18:25:00,70.9,62.6,29.90,ESE,111,2.0,2.0,75,0.00,,,0.01,65,Wunderground v.1.15,2013-04-02 23:25:00,
2013-04-02 18:30:00,70.8,62.5,29.89,East,90,2.0,2.0,75,0.00,,,0.01,58,Wunderground v.1.15,2013-04-02 23:30:00,
2013-04-02 18:40:00,70.7,62.4,29.90,ESE,106,2.0,2.0,75,0.00,,,0.01,42,Wunderground v.1.15,2013-04-02 23:40:00,
2013-04-02 18:45:00,70.6,62.3,29.90,East,83,1.0,2.0,75,0.00,,,0.01,35,Wunderground v.1.15,2013-04-02 23:45:00,
2013-04-02 18:50:00,70.5,62.2,29.90,ESE,117,1.0,1.0,75,0.00,,,0.01,35,Wunderground v.1.15,2013-04-02 23:50:00,
2013-04-02 18:55:00,70.4,62.5,29.91,ESE,117,0.0,1.0,76,0.00,,,0.01,32,Wunderground v.1.15,2013-04-02 23:55:00,
2013-04-02 19:00:00,70.3,62.0,29.90,ESE,108,1.0,1.0,75,0.00,,,0.01,14,Wunderground v.1.15,2013-04-03 00:00:00,
2013-04-02 19:10:00,70.0,62.1,29.90,ESE,118,1.0,2.0,76,0.00,,,0.01,11,Wunderground v.1.15,2013-04-03 00:10:00,
2013-04-02 19:15:00,69.9,62.0,29.90,ESE,119,1.0,2.0,76,0.00,,,0.01,9,Wunderground v.1.15,2013-04-03 00:15:00,
2013-04-02 19:20:00,69.8,61.9,29.90,ESE,115,1.0,1.0,76,0.00,,,0.01,9,Wunderground v.1.15,2013-04-03 00:20:00,
2013-04-02 19:30:00,69.6,62.1,29.90,ESE,110,1.0,1.0,77,0.00,,,0.01,0,Wunderground v.1.15,2013-04-03 00:30:00,
2013-04-02 19:40:00,69.3,61.8,29.90,SE,130,1.0,1.0,77,0.00,,,0.01,0,Wunderground v.1.15,2013-04-03 00:40:00,
2013-04-02 19:50:00,69.2,61.7,29.90,East,82,1.0,3.0,77,0.00,,,0.01,0,Wunderground v.1.15,2013-04-03 00:50:00,
2013-04-02 19:55:00,69.1,61.6,29.90,East,88,1.0,3.0,77,0.00,,,0.01,0,Wunderground v.1.15,2013-04-03 00:55:00,
2013-04-02 20:00:00,68.9,61.4,29.90,ENE,68,1.0,1.0,77,0.00,,,0.01,0,Wunderground v.1.15,2013-04-03 01:00:00,
2013-04-02 20:05:00,68.8,61.3,29.90,East,88,1.0,3.0,77,0.00,,,0.01,0,Wunderground v.1.15,2013-04-03 01:05:00,
2013-04-02 20:10:00,68.8,61.7,29.89,East,96,1.0,1.0,78,0.00,,,0.01,0,Wunderground v.1.15,2013-04-03 01:10:00,
2013-04-02 20:20:00,68.5,61.4,29.88,East,94,1.0,1.0,78,0.00,,,0.01,0,Wunderground v.1.15,2013-04-03 01:20:00,
2013-04-02 20:25:00,68.4,61.3,29.89,East,95,1.0,1.0,78,0.00,,,0.01,0,Wunderground v.1.15,2013-04-03 01:25:00,
2013-04-02 20:30:00,68.3,61.5,29.90,East,96,1.0,1.0,79,0.00,,,0.01,0,Wunderground v.1.15,2013-04-03 01:30:00,
2013-04-02 20:35:00,68.3,61.5,29.90,East,89,1.0,2.0,79,0.00,,,0.01,0,Wunderground v.1.15,2013-04-03 01:35:00,
2013-04-02 20:45:00,68.1,61.3,29.90,ESE,115,1.0,2.0,79,0.00,,,0.01,0,Wunderground v.1.15,2013-04-03 01:45:00,
2013-04-02 20:55:00,68.0,61.2,29.90,SE,140,1.0,2.0,79,0.00,,,0.01,0,Wunderground v.1.15,2013-04-03 01:55:00,
2013-04-02 21:00:00,68.0,61.2,29.90,East,95,1.0,1.0,79,0.00,,,0.01,0,Wunderground v.1.15,2013-04-03 02:00:00,
2013-04-02 21:05:00,67.9,61.5,29.91,ESE,117,1.0,1.0,80,0.00,,,0.01,0,Wunderground v.1.15,2013-04-03 02:05:00,
2013-04-02 21:10:00,67.9,61.1,29.91,ESE,112,0.0,0.0,79,0.00,,,0.01,0,Wunderground v.1.15,2013-04-03 02:10:00,
2013-04-02 21:20:00,67.8,61.4,29.91,ESE,117,1.0,1.0,80,0.00,,,0.01,0,Wunderground v.1.15,2013-04-03 02:20:00,
2013-04-02 21:30:00,67.7,61.3,29.90,ESE,114,1.0,2.0,80,0.00,,,0.01,0,Wunderground v.1.15,2013-04-03 02:30:00,
2013-04-02 21:35:00,67.6,61.6,29.90,ESE,121,1.0,4.0,81,0.00,,,0.01,0,Wunderground v.1.15,2013-04-03 02:35:00,
2013-04-02 21:40:00,67.4,61.4,29.90,ESE,107,1.0,3.0,81,0.00,,,0.01,0,Wunderground v.1.15,2013-04-03 02:40:00,
2013-04-02 21:50:00,67.2,61.2,29.91,SE,132,1.0,1.0,81,0.00,,,0.01,0,Wunderground v.1.15,2013-04-03 02:50:00,
2013-04-02 22:00:00,67.0,60.6,29.91,East,87,2.0,3.0,80,0.00,,,0.01,0,Wunderground v.1.15,2013-04-03 03:00:00,
2013-04-02 22:05:00,67.0,60.6,29.91,NE,34,2.0,3.0,80,0.00,,,0.01,0,Wunderground v.1.15,2013-04-03 03:05:00,
2013-04-02 22:10:00,67.0,60.6,29.91,ESE,105,2.0,2.0,80,0.00,,,0.01,0,Wunderground v.1.15,2013-04-03 03:10:00,
2013-04-02 22:20:00,66.8,60.4,29.90,ESE,104,2.0,2.0,80,0.00,,,0.01,0,Wunderground v.1.15,2013-04-03 03:20:00,
2013-04-02 22:25:00,66.7,60.7,29.90,East,98,1.0,2.0,81,0.00,,,0.01,0,Wunderground v.1.15,2013-04-03 03:25:00,
2013-04-02 22:40:00,66.6,60.6,29.90,NE,48,1.0,1.0,81,0.00,,,0.01,0,Wunderground v.1.15,2013-04-03 03:40:00,
2013-04-02 22:45:00,66.5,60.5,29.89,East,79,1.0,1.0,81,0.00,,,0.01,0,Wunderground v.1.15,2013-04-03 03:45:00,
2013-04-02 22:50:00,66.5,60.8,29.89,East,93,1.0,4.0,82,0.00,,,0.01,0,Wunderground v.1.15,2013-04-03 03:50:00,
2013-04-02 22:55:00,66.3,61.0,29.88,SE,128,2.0,4.0,83,0.00,,,0.01,0,Wunderground v.1.15,2013-04-03 03:55:00,
2013-04-02 23:00:00,66.1,60.8,29.88,East,92,2.0,2.0,83,0.00,,,0.01,0,Wunderground v.1.15,2013-04-03 04:00:00,
2013-04-02 23:05:00,66.0,61.0,29.87,ENE,72,1.0,2.0,84,0.00,,,0.01,0,Wunderground v.1.15,2013-04-03 04:05:00,
2013-04-02 23:15:00,65.4,61.1,29.87,ESE,106,3.0,4.0,86,0.00,,,0.02,0,Wunderground v.1.15,2013-04-03 04:15:00,
2013-04-02 23:20:00,65.1,61.1,29.86,ENE,61,2.0,2.0,87,0.00,,,0.02,0,Wunderground v.1.15,2013-04-03 04:20:00,
2013-04-02 23:25:00,64.9,61.3,29.88,ENE,73,1.0,2.0,88,0.00,,,0.02,0,Wunderground v.1.15,2013-04-03 04:25:00,
2013-04-02 23:30:00,64.7,61.1,29.88,East,85,1.0,1.0,88,0.00,,,0.02,0,Wunderground v.1.15,2013-04-03 04:30:00,
2013-04-02 23:40:00,64.5,61.5,29.87,NNE,17,1.0,2.0,90,0.00,,,0.03,0,Wunderground v.1.15,2013-04-03 04:40:00,
2013-04-02 23:50:00,64.2,61.5,29.87,NNE,17,1.0,1.0,91,0.00,,,0.03,0,Wunderground v.1.15,2013-04-03 04:50:00,
2013-04-02 23:55:00,64.0,61.3,29.86,NNE,19,0.0,1.0,91,0.00,,,0.03,0,Wunderground v.1.15,2013-04-03 04:55:00,